GFSMW_sfc_30mbdewp_024.txt.gz
Dewpoint
46 50 56 56 55 57 57 58 58 58 56 57 56 55 52 52 50 46 44 43 43 43 42 42 41 41 39 39 37 36 34 34 35 32 31 31 31 29 28 27 25 25 26
44 46 51 55 56 57 57 58 58 58 56 55 57 55 52 49 45 43 43 42 42 41 41 41 40 39 38 37 37 36 35 36 34 31 32 28 29 27 26 26 24 22 23
44 49 51 55 56 56 58 58 58 58 57 55 57 52 48 45 43 42 42 42 42 39 36 33 31 31 32 31 35 37 35 34 35 33 30 27 26 26 27 22 22 21 22
46 50 54 56 57 57 59 59 59 58 57 56 54 51 47 43 42 42 43 38 29 30 31 30 30 32 33 33 35 38 37 35 34 34 32 30 28 23 22 22 22 22 21
47 51 57 58 58 59 59 59 58 58 58 54 51 48 44 43 44 41 30 28 28 30 30 29 31 33 34 36 38 37 37 37 36 35 33 29 26 25 22 20 21 22 22
48 52 58 59 59 59 59 58 58 55 54 51 47 45 42 40 37 29 25 27 30 29 28 30 29 31 34 37 37 37 37 36 36 36 33 28 25 24 22 21 21 20 21
50 53 56 57 58 58 57 54 51 46 45 45 43 39 35 31 29 26 26 26 27 27 28 29 29 30 36 38 37 37 37 37 36 35 32 31 29 27 25 23 21 21 21
52 54 54 54 53 51 48 46 43 40 37 37 35 32 31 30 27 28 28 27 27 28 28 28 29 29 30 36 38 37 37 36 36 35 34 32 29 28 27 24 22 21 21
51 52 51 50 48 44 45 44 41 37 32 30 30 29 29 29 28 28 28 28 28 28 28 28 28 29 28 29 34 37 36 36 36 34 33 32 29 29 28 27 25 23 21
49 49 48 47 44 43 44 43 40 36 33 30 29 29 29 29 30 29 28 28 27 28 27 27 28 27 28 30 32 37 36 34 31 31 32 30 30 29 29 26 26 24 22
47 47 47 46 44 43 43 43 39 34 31 29 29 29 30 30 30 29 29 28 27 27 27 27 27 27 29 29 28 28 29 30 31 31 30 30 30 28 26 25 21 19 17
44 45 45 45 45 44 44 42 38 34 31 30 30 29 30 31 30 30 29 29 28 28 27 27 26 27 30 28 26 27 28 30 28 28 28 27 27 26 24 21 17 16 16
42 42 42 44 44 44 44 42 38 34 31 31 31 30 30 31 30 29 29 29 28 28 28 27 26 27 29 27 27 27 27 28 28 27 27 27 26 23 20 17 15 16 16
41 39 40 42 43 44 44 42 37 34 32 31 31 30 31 31 30 30 30 29 29 29 27 27 27 28 29 29 28 27 26 26 25 25 25 22 19 16 16 15 15 15 16
40 38 39 41 43 43 43 39 36 35 33 31 30 30 31 32 31 29 29 30 30 28 27 28 28 29 29 30 29 26 24 23 22 22 20 19 19 21 17 16 18 18 18
34 38 39 41 42 42 42 42 38 35 33 31 30 30 33 32 30 28 27 28 28 28 28 28 29 29 29 29 29 25 23 21 21 21 20 18 19 21 23 22 21 19 16
36 40 40 41 41 42 43 42 40 36 33 32 32 32 31 29 27 26 26 26 27 28 28 27 28 28 29 29 28 25 21 19 21 22 19 18 20 20 17 18 18 16 16
32 35 40 41 41 41 42 40 37 35 34 32 31 30 28 27 28 29 30 30 30 29 27 27 28 28 29 30 28 23 19 19 23 22 20 20 19 18 17 17 16 16 15
32 31 31 36 38 40 38 36 35 29 28 29 29 29 30 31 30 31 31 32 30 28 27 27 27 28 29 30 28 20 18 21 22 23 22 21 20 19 20 17 17 17 15
30 30 30 29 28 29 31 32 32 31 31 31 30 30 32 33 33 33 32 30 29 27 28 28 28 28 28 30 27 21 20 20 22 23 22 20 18 21 19 19 19 17 15
30 31 31 30 31 33 33 32 32 31 31 32 35 37 36 35 34 32 30 28 28 28 27 28 29 27 27 27 27 25 20 20 21 22 21 21 21 20 21 22 21 18 17
31 31 31 32 33 32 32 32 32 35 37 37 36 37 36 33 30 29 28 28 26 26 27 28 28 28 27 26 28 28 23 22 20 21 21 21 23 23 23 22 23 23 23
31 32 31 31 33 33 33 32 33 34 36 35 32 31 30 30 30 29 28 26 26 26 26 27 25 25 28 27 27 28 28 25 22 21 20 20 22 24 23 24 23 23 21
32 31 30 29 29 29 29 30 30 30 29 29 29 29 29 29 29 29 28 27 26 26 26 26 25 24 26 27 29 28 28 28 24 21 22 21 22 24 22 22 21 21 21
32 31 30 29 28 28 27 28 29 28 27 27 28 28 28 28 28 29 28 29 28 28 27 26 25 24 24 25 28 28 28 28 27 24 21 19 19 20 22 20 20 21 19
29 29 28 28 28 27 27 27 28 27 27 27 27 27 27 27 28 29 29 29 29 29 28 28 29 28 28 28 29 31 31 29 28 23 22 21 19 20 21 18 18 19 19

GFSMW_sfc_30mbdewp_027.txt.gz
Dewpoint
54 56 57 58 59 58 59 58 57 57 56 55 54 53 51 52 50 47 44 45 44 43 42 42 41 40 38 37 37 36 33 35 34 31 31 32 30 28 27 24 24 23 23
52 55 57 57 57 57 58 58 57 56 56 55 56 54 52 51 46 45 43 44 42 42 42 41 40 38 36 34 36 36 35 36 34 31 31 27 28 28 26 24 22 22 22
47 50 55 56 55 56 57 58 57 57 56 56 56 52 47 45 43 42 42 42 42 40 36 33 32 31 31 31 34 37 35 33 34 33 30 28 26 27 27 23 22 22 22
45 47 52 55 55 55 57 58 58 57 56 56 55 52 49 44 42 42 42 34 33 31 31 31 33 34 34 33 35 38 37 35 33 34 32 30 28 26 24 23 22 23 21
44 46 49 54 55 56 57 58 58 58 57 56 55 51 47 44 43 41 32 29 32 31 31 32 32 33 35 36 37 37 36 36 35 34 33 30 27 25 23 21 21 22 23
46 50 53 55 56 57 58 58 58 58 58 56 54 50 45 43 40 33 28 30 29 30 30 29 31 33 36 37 36 37 36 36 35 35 34 30 26 25 24 22 22 21 21
44 52 56 57 57 57 58 58 57 56 56 54 51 47 44 42 38 31 28 28 27 28 29 29 29 30 36 38 37 37 36 36 35 34 33 32 30 28 26 24 23 21 22
47 52 56 57 57 57 57 57 54 51 51 50 45 40 39 39 33 29 29 29 28 29 29 29 29 29 30 35 37 37 37 36 35 35 34 33 31 29 28 25 23 22 22
49 53 56 57 57 57 55 53 50 46 44 44 38 35 33 33 31 30 29 29 30 29 29 28 29 29 28 29 31 35 36 36 35 35 32 32 32 30 28 27 25 25 22
51 53 54 54 54 53 51 47 43 41 39 37 36 33 32 31 30 29 28 28 30 30 29 28 28 27 28 30 31 35 37 33 32 31 31 32 30 30 29 27 26 25 26
50 51 52 51 50 49 48 44 39 35 35 34 33 32 30 31 30 29 30 30 30 29 28 28 27 26 28 29 30 29 28 29 30 31 31 30 30 29 28 26 24 21 19
49 50 51 48 46 46 45 43 39 35 33 33 33 31 30 31 30 30 30 30 28 29 28 28 27 27 28 29 27 26 27 27 28 28 29 28 28 27 26 23 20 17 16
47 48 48 47 45 44 44 43 40 36 32 33 31 31 30 30 30 29 29 30 29 29 28 28 27 27 28 29 28 27 28 28 28 28 27 27 27 26 23 20 17 16 16
45 45 45 46 46 44 44 44 41 36 34 34 32 31 32 31 30 31 30 30 30 29 28 27 27 28 28 29 29 28 27 27 27 27 27 27 24 21 17 17 15 15 15
43 42 42 44 45 46 45 44 40 38 37 34 33 32 34 32 32 31 31 31 30 29 28 28 29 30 30 29 29 28 27 26 25 24 21 20 19 19 17 16 15 17 18
41 40 39 41 42 44 44 41 40 38 35 34 33 33 34 34 32 31 30 31 30 29 28 28 29 29 30 29 30 29 27 25 23 22 21 20 20 22 23 22 22 19 16
38 39 39 40 41 43 44 42 40 38 36 34 34 35 34 31 29 28 28 28 29 30 30 31 28 28 29 29 30 30 26 23 22 21 21 19 18 21 23 23 20 18 18
33 33 35 40 41 42 43 42 39 36 35 33 33 31 29 30 31 30 31 31 33 34 33 29 28 28 28 29 31 30 24 22 21 22 22 20 19 20 18 17 16 16 17
30 31 30 31 34 37 37 34 31 31 30 30 31 32 31 31 32 33 34 35 35 31 29 28 27 28 28 29 31 28 22 20 20 23 22 21 21 21 22 19 17 17 18
30 30 30 32 33 32 32 31 30 30 30 30 32 34 35 36 36 36 36 35 31 29 29 28 29 29 27 29 31 28 22 21 21 23 23 25 22 21 23 21 18 19 19
31 32 32 32 32 32 32 31 31 32 35 37 38 39 39 38 37 36 35 32 29 28 27 26 27 28 28 28 30 30 22 22 22 22 22 22 22 22 23 22 21 21 19
31 32 32 32 32 32 32 32 34 37 38 38 37 38 38 36 35 33 30 29 28 27 26 26 27 26 26 28 28 30 28 23 22 21 22 23 23 24 23 23 24 24 23
31 31 31 30 31 33 33 33 34 36 36 34 32 32 31 30 30 29 29 28 27 26 25 26 26 26 26 25 28 28 29 29 24 23 23 24 24 24 24 25 25 24 22
30 30 29 29 28 29 30 30 29 29 28 28 28 28 28 28 28 29 29 28 27 26 26 26 26 26 26 25 26 27 28 28 29 26 26 25 25 23 24 23 24 23 21
30 30 29 28 27 27 28 28 29 28 27 27 27 28 28 27 27 27 27 28 28 28 28 27 27 27 25 25 26 26 26 27 28 29 26 24 23 22 21 22 21 21 20
29 28 28 27 27 27 29 30 30 29 29 29 29 28 28 28 28 28 28 29 29 30 29 29 29 27 27 28 29 29 29 30 29 27 24 22 22 21 22 21 20 20 18

GFSMW_sfc_30mbdewp_030.txt.gz
Dewpoint
54 54 54 55 58 59 59 59 58 57 56 55 54 52 51 51 49 47 46 48 45 43 42 42 41 39 37 36 36 35 35 34 34 32 32 31 30 27 25 24 23 22 23
54 54 54 56 58 59 59 58 58 57 56 55 54 52 51 51 47 45 45 45 43 42 42 40 39 37 35 35 36 35 35 35 34 31 30 28 28 28 25 23 22 22 23
52 54 55 56 57 58 58 58 57 57 56 55 54 50 48 46 45 43 43 43 42 42 38 35 32 31 32 32 35 36 34 33 33 33 30 27 25 27 28 23 23 22 22
49 52 55 56 57 57 58 58 57 56 56 56 54 51 49 46 44 42 42 38 35 32 32 32 33 33 34 34 37 37 36 35 33 34 32 30 29 28 27 25 23 24 22
45 49 51 55 56 56 57 58 58 57 56 56 55 52 50 47 44 41 34 32 31 31 32 33 33 34 36 37 36 36 35 36 35 34 33 31 28 26 25 23 22 23 23
44 46 48 53 55 55 56 58 58 57 57 55 55 52 48 46 42 36 31 31 30 31 31 32 31 34 37 36 36 36 36 35 35 35 34 31 28 26 24 23 23 22 23
43 46 48 50 54 55 56 57 58 57 57 56 54 52 49 45 41 35 31 28 29 30 29 30 30 34 37 37 36 36 35 35 35 34 33 32 30 29 27 25 24 23 22
42 47 51 52 54 55 56 57 57 57 56 56 54 51 48 45 41 33 31 29 29 29 30 30 30 30 34 35 37 36 36 36 35 34 34 33 33 31 28 26 24 23 23
43 46 53 54 55 56 56 57 56 56 54 54 51 49 46 43 38 36 32 31 31 30 31 30 31 30 28 30 33 34 36 37 35 34 34 33 32 32 30 28 25 25 26
46 48 53 55 56 56 57 57 55 53 51 50 48 45 43 42 39 34 32 33 32 30 31 31 30 29 28 29 31 32 35 36 35 34 31 31 31 30 29 28 28 26 25
48 51 54 55 55 55 54 53 51 49 47 45 43 41 40 37 36 34 35 31 31 32 32 30 29 28 28 30 30 33 35 32 29 30 31 30 30 30 29 28 26 25 24
48 51 52 53 53 53 51 51 46 43 41 40 39 38 36 37 35 32 31 31 31 31 29 30 28 28 28 30 30 28 27 27 27 28 29 30 30 29 28 26 24 21 19
47 49 50 50 50 50 49 48 43 40 39 38 38 36 34 32 30 30 31 32 31 30 29 29 28 27 28 29 29 28 27 27 28 28 28 27 28 27 26 24 21 19 17
44 48 49 49 47 46 48 47 44 39 38 37 36 34 32 31 31 32 31 31 31 30 29 29 28 28 29 29 29 29 28 28 28 28 28 27 27 26 24 21 19 17 16
43 45 46 47 47 46 46 45 43 40 39 37 35 33 32 33 33 33 32 32 31 30 29 29 29 30 32 30 29 29 29 28 27 27 27 27 26 25 20 17 16 16 15
41 42 42 43 45 46 46 46 43 41 39 38 36 36 36 35 34 32 31 31 31 30 29 30 30 33 32 29 30 31 29 28 26 25 24 21 24 24 25 25 20 17 18
36 38 40 40 41 43 45 44 43 41 39 37 36 38 37 34 33 32 30 29 29 32 34 35 35 34 30 30 30 30 30 28 26 24 23 22 19 21 21 24 25 24 22
31 32 33 36 38 42 42 40 39 38 36 36 36 36 33 31 32 31 31 34 35 37 37 36 33 30 28 28 29 29 31 27 26 24 22 21 20 20 20 21 21 19 17
30 31 33 33 33 33 32 32 31 32 32 32 33 33 33 33 34 35 36 37 37 37 36 33 33 29 28 29 29 31 30 26 24 22 22 22 21 21 24 20 18 17 17
31 32 33 33 32 32 31 31 30 31 32 33 35 36 37 37 37 37 37 37 36 33 33 29 29 28 28 28 29 31 29 25 23 22 23 25 22 23 24 24 21 18 18
32 32 32 31 31 31 32 33 34 36 37 38 38 38 38 38 38 37 36 36 36 33 29 27 27 27 28 28 28 30 29 26 24 23 23 23 25 26 25 25 22 20 19
32 32 32 32 33 34 35 36 36 38 38 38 38 38 38 37 36 35 33 30 29 28 27 26 26 26 27 27 27 28 30 29 25 24 24 24 24 26 26 25 25 23 23
30 30 31 32 33 34 34 34 35 32 31 30 29 29 29 29 29 29 28 28 28 27 26 26 26 26 27 27 27 28 28 30 29 26 24 24 25 26 29 26 25 25 24
29 29 28 28 28 28 29 29 28 28 27 27 27 28 28 28 28 28 28 27 26 26 26 26 26 27 27 27 27 26 26 28 29 29 28 26 26 28 28 27 27 26 24
29 28 27 27 27 29 30 29 29 29 28 29 28 28 27 26 26 27 27 27 28 28 28 28 28 27 27 27 28 27 26 26 26 27 27 27 25 25 24 24 24 25 23
28 28 27 28 29 29 29 28 27 27 26 25 26 26 25 26 26 26 24 25 27 28 29 29 30 30 30 30 30 30 30 31 29 27 26 25 24 23 23 23 23 23 22

GFSMW_sfc_30mbdewp_033.txt.gz
Dewpoint
51 54 55 55 55 56 56 58 59 60 59 57 56 56 55 54 53 52 51 49 46 46 44 43 42 41 39 38 39 36 36 35 36 33 32 31 31 29 26 26 25 25 26
53 54 55 54 55 55 57 58 59 59 58 57 56 55 54 53 50 48 50 47 46 44 44 43 41 40 38 38 38 37 36 35 36 30 30 26 29 29 26 25 24 27 24
52 54 54 54 54 55 57 59 59 59 58 57 56 53 52 51 47 46 47 45 45 44 43 42 39 36 34 33 37 37 35 33 35 36 28 23 20 28 30 28 25 27 25
50 52 54 54 55 56 58 59 59 58 58 57 55 53 52 50 48 46 46 44 44 42 39 36 35 35 35 35 37 38 39 37 32 35 33 34 32 25 23 28 28 27 26
48 50 53 54 55 56 58 59 59 58 58 57 56 54 53 52 48 45 44 40 39 37 35 35 36 35 35 38 38 40 38 37 34 32 33 34 31 31 27 22 23 25 26
46 47 51 54 56 58 58 59 59 58 57 57 56 54 53 49 47 43 40 38 36 35 35 34 35 36 37 38 39 39 39 36 35 34 34 31 28 25 26 24 24 25 25
44 45 47 50 54 56 57 58 58 58 57 56 56 55 52 48 46 41 40 37 34 33 34 34 34 37 39 39 39 38 37 37 35 35 33 33 31 30 29 28 25 25 24
43 44 45 47 51 56 57 57 58 57 52 57 56 55 51 50 47 42 42 38 36 32 33 33 35 36 38 38 38 38 37 38 37 36 35 33 33 33 32 29 27 25 23
40 42 44 47 50 55 56 57 57 57 57 57 56 55 53 51 47 43 42 39 35 33 34 35 34 34 34 37 37 35 36 38 39 37 37 35 34 33 33 32 30 27 23
41 43 46 50 52 54 55 57 57 56 56 57 56 55 54 51 49 45 42 37 35 32 34 34 33 32 32 32 34 33 35 36 37 36 35 34 32 32 32 31 30 29 27
44 45 48 53 54 55 55 56 57 57 56 56 55 54 52 51 48 44 41 38 37 33 33 34 32 31 31 32 33 33 33 35 36 35 32 31 32 31 31 31 30 29 28
44 48 51 53 55 55 55 56 56 55 54 52 51 51 49 47 45 44 42 40 35 33 33 33 31 31 30 32 32 33 31 34 33 30 30 30 30 32 32 31 30 28 26
44 48 51 52 53 53 53 52 51 50 48 47 48 47 46 45 44 43 42 38 34 33 33 31 30 29 30 31 32 32 31 30 29 29 30 29 31 30 29 29 27 25 23
40 47 49 50 50 50 51 51 49 46 45 44 45 44 43 43 43 40 36 34 33 33 31 31 30 31 30 31 34 37 31 31 30 30 31 30 30 28 28 27 26 23 20
42 45 47 48 48 48 48 48 47 44 43 41 40 41 39 37 36 35 35 34 33 32 31 32 32 32 33 37 39 34 31 31 30 31 31 30 30 29 28 25 23 20 18
41 41 43 45 46 47 47 46 45 43 41 41 40 37 37 35 36 36 34 34 32 32 31 31 33 35 38 39 35 32 31 31 31 30 30 29 29 30 29 25 21 19 19
36 38 40 41 42 43 46 45 44 43 41 39 38 38 37 36 36 35 33 32 32 34 37 38 37 37 39 35 31 30 30 31 30 30 29 28 24 24 23 25 28 25 21
33 34 36 37 38 39 39 39 39 38 38 38 38 37 35 33 33 33 34 37 39 39 38 39 39 37 34 35 35 29 30 30 30 30 29 28 26 24 22 21 22 22 23
33 34 34 34 34 34 34 34 34 34 34 34 34 34 34 34 37 37 38 38 38 39 38 37 36 35 37 33 30 29 30 30 29 29 28 27 26 25 24 21 21 20 19
33 33 33 33 32 32 33 33 33 34 34 35 35 35 36 37 37 38 38 38 38 37 36 35 35 34 30 29 29 30 31 30 29 29 27 26 25 24 25 24 24 21 18
32 32 32 32 33 34 35 35 35 35 36 36 37 37 38 38 38 38 38 37 36 34 33 31 31 30 29 29 29 29 29 30 29 28 28 27 26 26 26 26 26 25 23
32 32 33 34 35 35 35 35 36 37 38 37 35 34 33 32 31 31 30 29 29 29 29 30 29 29 29 29 29 29 29 29 30 29 28 29 27 27 28 28 27 26 24
31 32 33 34 34 34 33 30 30 29 29 28 28 28 29 29 29 28 28 28 28 28 28 28 28 28 29 29 30 29 29 29 30 31 31 29 28 27 27 28 27 27 27
31 31 29 28 28 28 28 28 28 28 29 29 29 28 27 26 25 25 25 24 24 24 24 24 24 26 27 27 29 29 31 31 29 30 31 30 28 28 28 27 29 30 29
28 28 28 28 29 28 28 28 28 28 26 25 24 22 21 19 19 18 20 20 21 23 23 22 22 25 25 25 25 24 25 28 30 31 31 30 29 28 27 28 28 27 29
27 28 29 28 27 25 24 23 24 22 20 19 18 19 19 19 18 17 16 20 21 22 21 22 22 24 23 20 20 20 20 21 25 26 27 28 29 28 27 27 26 26 26

GFSMW_sfc_30mbdewp_036.txt.gz
Dewpoint
45 48 49 50 50 51 53 53 55 57 60 57 52 52 55 57 58 58 57 56 53 51 49 47 46 43 41 40 39 35 31 31 32 33 32 32 33 31 28 28 26 26 26
44 49 51 50 50 51 53 54 55 57 59 56 52 53 56 57 56 55 55 54 52 50 47 46 44 43 42 41 38 32 32 33 33 33 28 26 28 31 30 27 27 29 26
47 49 51 52 51 50 52 53 55 57 59 57 54 54 57 57 54 52 52 51 50 48 46 46 44 43 40 38 35 34 35 35 35 35 26 21 23 25 28 31 28 28 27
45 47 51 52 53 52 53 54 54 56 58 58 54 53 53 54 54 52 50 49 48 47 45 45 44 41 36 34 33 37 37 36 35 34 30 31 27 17 20 28 29 30 28
44 45 47 51 52 52 53 55 55 56 58 58 57 56 55 55 55 52 49 49 49 47 45 43 41 38 35 34 36 38 37 37 32 28 31 31 28 28 25 20 18 22 23
44 45 47 49 51 53 54 56 56 56 58 59 59 58 56 56 54 51 49 48 47 45 42 39 39 37 34 37 41 39 39 35 32 29 29 25 25 24 23 21 20 21 23
43 44 46 48 50 52 56 57 57 57 59 59 59 58 57 57 54 52 49 46 43 42 41 38 37 36 36 41 39 40 36 35 32 32 29 29 27 25 24 23 23 22 22
41 43 44 46 48 52 56 57 58 57 59 58 58 59 58 57 55 53 48 43 43 42 41 38 36 35 40 39 39 35 38 35 33 34 32 28 28 28 27 25 23 22 21
33 39 42 44 47 50 55 57 57 57 58 57 54 57 57 56 54 52 47 44 44 42 39 38 36 39 37 38 35 36 34 33 36 35 33 31 28 29 28 27 26 24 22
36 37 39 42 46 48 53 56 57 56 57 54 56 56 56 56 55 53 48 47 46 43 39 38 36 38 37 35 35 33 32 35 35 33 32 31 28 27 27 25 25 25 23
39 41 43 45 47 49 52 54 56 56 56 54 56 57 57 56 56 55 51 49 47 43 39 38 36 35 35 32 33 30 33 32 31 32 30 29 28 27 26 26 25 24 23
37 43 46 49 51 52 52 53 55 55 55 56 57 57 57 57 55 53 51 50 46 43 39 38 35 35 31 29 30 31 27 32 33 29 30 28 27 28 28 26 26 25 24
36 43 48 50 52 53 54 54 56 55 56 56 56 56 55 54 53 51 50 48 46 44 40 36 33 32 30 31 31 31 35 38 34 29 28 28 28 28 27 27 26 24 22
32 41 47 49 51 52 53 54 54 54 53 52 52 52 52 50 50 49 48 48 46 43 38 35 34 33 30 31 33 39 41 38 32 30 30 29 29 28 28 26 26 24 23
36 42 46 48 49 51 52 52 52 51 51 49 49 49 49 49 48 47 45 43 40 37 35 34 33 33 34 34 40 41 39 39 34 31 31 30 31 31 30 26 25 24 22
41 43 45 47 48 49 49 49 48 47 47 46 45 43 42 42 41 39 38 37 35 33 34 35 34 34 37 40 39 38 38 38 32 30 30 30 32 31 32 30 29 26 23
41 41 42 43 44 45 46 45 45 45 44 42 41 40 39 38 37 36 34 33 33 35 37 37 36 36 36 39 37 38 35 35 32 29 29 28 26 28 30 30 30 26 21
37 38 39 40 41 41 42 42 41 41 41 40 39 38 37 36 35 34 34 36 38 38 38 37 36 36 38 38 37 37 37 31 29 28 27 26 26 26 27 27 27 26 25
36 36 37 38 38 38 38 37 37 37 36 36 36 36 36 36 37 37 38 38 38 38 37 38 38 38 37 36 37 34 29 26 26 26 26 26 26 27 29 27 26 26 25
35 35 36 35 36 35 36 36 36 36 36 35 35 36 36 36 37 37 37 38 38 38 37 37 36 36 36 33 31 30 28 27 27 27 26 27 28 28 29 27 27 26 25
34 34 34 35 35 36 36 35 35 35 35 36 36 36 37 38 38 38 38 37 35 33 31 31 30 30 30 29 30 30 29 29 29 28 28 27 28 28 28 28 27 28 28
33 34 35 35 35 35 35 34 34 36 36 35 33 31 31 29 27 26 26 25 25 27 27 29 29 29 30 30 30 30 30 30 30 30 31 31 31 30 30 28 27 27 28
33 34 34 34 35 35 34 34 33 32 30 28 26 27 27 27 27 27 26 25 26 26 26 24 24 22 23 23 26 28 26 25 27 28 30 30 30 33 32 30 29 28 29
32 33 32 30 29 29 28 28 27 26 26 26 26 25 24 23 21 19 17 16 18 18 18 18 19 19 21 22 22 21 20 20 21 22 24 26 28 31 32 33 32 29 30
31 30 30 29 28 27 27 27 26 25 24 23 21 20 18 14 13 13 16 16 19 21 19 19 19 20 21 20 19 19 20 20 20 22 25 24 24 22 26 29 31 32 30
29 29 29 27 26 25 25 24 24 23 20 16 15 17 17 16 12 11 12 20 20 20 19 19 20 19 18 16 16 17 17 17 18 20 24 26 26 25 23 26 29 31 30

GFSMW_sfc_30mbdewp_042.txt.gz
Dewpoint
46 52 49 49 49 50 47 47 49 51 52 52 53 53 50 52 53 56 57 58 58 57 57 57 54 53 52 49 48 44 39 35 40 39 40 39 38 36 34 34 33 31 31
47 47 49 50 51 50 49 51 50 52 54 55 53 53 51 51 54 58 59 59 58 57 56 56 55 53 51 49 46 44 41 41 42 40 40 39 37 37 37 36 33 31 32
47 46 48 50 51 49 50 51 52 54 56 55 54 51 51 50 52 55 58 58 58 57 55 56 54 53 52 49 47 45 42 40 42 41 39 36 33 34 37 36 34 34 33
42 46 47 48 49 51 51 51 51 51 54 55 55 50 48 49 53 54 56 57 58 57 55 54 53 52 51 48 47 46 43 43 43 43 41 40 36 32 29 36 35 36 34
39 43 46 48 49 50 52 52 51 52 54 56 57 55 50 54 55 56 55 56 57 56 56 52 51 52 50 49 47 43 43 45 42 41 41 39 37 37 34 31 32 35 34
39 40 45 47 49 50 52 54 53 53 54 57 57 56 52 54 55 55 56 56 55 54 53 51 52 53 52 48 45 44 46 43 43 40 37 37 33 33 34 33 32 31 31
38 40 41 45 47 49 52 53 54 53 54 57 58 57 56 56 55 55 56 57 54 53 53 53 52 52 49 46 42 45 45 45 42 38 39 34 34 34 32 29 27 27 28
39 39 39 43 45 49 51 52 53 52 53 56 58 58 58 58 58 58 58 56 55 55 55 53 50 47 45 44 44 47 45 43 41 41 38 35 37 36 31 29 29 28 28
37 39 39 40 44 48 51 53 53 52 53 54 59 59 59 58 58 58 58 57 56 55 52 49 47 45 45 44 45 43 43 41 41 39 36 38 38 35 33 32 31 29 26
28 35 38 39 42 48 51 54 53 53 53 55 59 60 60 58 57 58 59 57 56 49 49 48 46 45 44 44 43 43 42 38 38 36 39 38 38 37 35 32 30 29 28
32 35 36 37 40 43 47 54 54 54 55 56 60 60 59 58 59 59 59 58 51 50 48 48 46 44 44 43 42 41 39 37 37 40 40 40 42 40 35 33 31 30 29
28 36 39 39 40 41 44 55 56 56 57 59 60 59 58 56 57 57 58 54 51 50 48 47 45 43 44 43 42 39 32 37 38 39 41 41 41 39 37 34 31 31 30
26 34 40 43 44 44 45 49 54 56 58 59 59 59 56 57 57 57 57 52 51 50 49 47 44 42 43 42 38 35 39 40 41 41 40 40 39 37 35 34 33 32 31
26 29 40 44 47 48 49 50 54 55 57 59 59 57 57 57 56 55 54 53 52 50 47 44 43 42 39 36 37 40 40 39 39 41 40 40 39 37 35 34 33 32 32
23 27 35 45 49 52 52 53 56 57 56 57 56 56 55 54 53 52 51 51 50 49 47 43 39 37 37 39 40 39 38 38 39 40 39 40 39 38 37 35 33 32 32
24 27 33 46 50 53 53 55 54 54 54 54 53 54 53 52 52 51 50 48 45 41 39 37 37 36 38 38 38 39 38 38 38 37 38 39 39 38 36 34 33 33 31
32 36 38 47 50 52 53 53 53 53 51 49 48 50 49 48 45 43 41 39 38 38 38 37 37 37 37 38 38 38 37 37 38 38 37 37 37 36 32 30 29 30 32
37 41 46 49 50 51 50 50 49 47 46 44 43 43 42 40 38 37 36 37 37 37 38 38 38 37 37 37 38 37 38 38 37 37 37 35 31 29 30 31 29 29 30
41 43 45 47 46 45 45 44 43 42 42 41 41 40 39 38 37 37 37 37 38 37 37 36 37 38 38 38 38 38 37 35 32 31 30 31 31 31 32 31 31 32 31
42 42 42 42 42 42 41 40 39 39 38 38 38 39 39 39 39 39 40 39 39 38 38 38 39 38 37 37 36 34 32 31 30 30 29 28 29 29 28 24 23 23 26
39 39 39 39 39 38 38 37 37 37 38 38 38 38 39 39 39 39 39 38 38 37 36 36 34 33 32 30 27 26 26 23 23 24 24 25 25 25 23 22 20 20 21
37 38 37 37 37 38 37 36 36 37 37 38 38 38 38 38 38 37 34 32 31 30 31 31 30 32 29 26 25 22 21 21 21 21 22 23 22 20 22 23 24 26 26
36 36 37 37 37 37 37 36 37 38 38 37 36 35 32 29 27 27 26 26 28 27 23 22 23 25 28 27 21 19 18 19 20 20 20 19 18 20 23 25 26 27 27
35 36 37 37 36 36 36 37 36 36 35 31 27 26 24 23 23 19 19 24 24 21 20 21 21 23 23 21 19 18 18 19 19 18 19 20 21 22 21 20 20 21 23
35 36 36 36 36 36 36 35 34 30 29 27 25 24 21 18 20 19 22 22 19 21 22 21 22 23 21 18 16 16 17 17 17 17 19 19 19 17 17 17 17 18 19
35 36 36 35 34 33 31 30 28 27 25 23 23 22 20 17 19 18 18 21 19 19 18 17 19 20 17 15 14 15 15 15 17 18 17 16 16 16 15 14 15 16 17